Hourly Data Report for October 11, 2013

All times are specified in Local Standard Time (LST). Add 1 hour to adjust for Daylight Saving Time where and when it is observed.

CAPE DORSET A
NUNAVUT

64°13'49.000" N
76°31'30.000" W
48.20 m
2400637
71366
YTE

Download Data

Hourly Data (October 2013)
Hourly Data Report for October 11, 2013
Temp Definition
°C
Dew Point Temp Definition
°C
Rel Hum Definition
%
Wind Dir Definition
10's deg

Wind Spd Definition
km/h
Visibility Definition
km
Stn Press Definition
kPa
Hmdx Definition


Wind Chill Definition


Weather Definition


TIME
00:00 Legend Double Dagger -3.1 -7.8 70 20 9 16.1 102.06   -7 LegendNANA
01:00 Legend Double Dagger -3.2 -7.6 72 25 9 16.1 102.08   -7 LegendNANA
02:00 Legend Double Dagger -3.6 -7.7 73 23 9 16.1 102.12   -7 LegendNANA
03:00 Legend Double Dagger -3.6 -7.6 74 24 9 16.1 102.12   -7 LegendNANA
04:00 Legend Double Dagger -3.0 -7.4 72 22 11 16.1 102.14   -7 LegendNANA
05:00 Legend Double Dagger -2.6 -6.6 74 24 13 16.1 102.15   -7 LegendNANA
06:00 Legend Double Dagger -2.4 -6.4 74 24 11 16.1 102.14   -6 LegendNANA
07:00 Legend Double Dagger -2.2 -6.2 74 20 8 16.1 102.14   -5 LegendNANA
08:00 Legend Double Dagger -1.9 -6.2 73 21 15 16.1 102.12   -7 LegendNANA
09:00 Legend Double Dagger -1.8 -5.5 76 19 15 16.1 102.09   -7 LegendNANA
10:00 Legend Double Dagger -0.9 -4.8 75 19 13 16.1 102.11   -5 LegendNANA
11:00 Legend Double Dagger -0.9 -4.5 77 19 18 16.1 102.10   -6 LegendNANA
12:00 Legend Double Dagger -0.7 -4.0 78 20 13 16.1 102.06   -5 LegendNANA
13:00 Legend Double Dagger -0.3 -3.2 81 19 17 16.1 102.02   -5 LegendNANA
14:00 Legend Double Dagger -0.1 -2.8 82 18 18 16.1 102.02   -5 LegendNANA
15:00 Legend Double Dagger -0.2 -2.3 86 19 24 16.1 101.98   -6 LegendNANA
16:00 Legend Double Dagger 0.1 -2.0 86 19 17 16.1 101.95     LegendNANA
17:00 Legend Double Dagger 0.0 -1.5 90 17 18 16.1 101.93   -5 LegendNANA
18:00 Legend Double Dagger 0.1 -1.4 90 20 15 16.1 101.91     LegendNANA
19:00 Legend Double Dagger 0.1 -1.4 90 20 17 14.5 101.87     LegendNANA
20:00 Legend Double Dagger 0.2 -1.6 88 20 21 16.1 101.85     LegendNANA
21:00 Legend Double Dagger 0.1 -1.5 89 20 18 16.1 101.78     LegendNANA
22:00 Legend Double Dagger 0.1 -1.9 86 18 15 16.1 101.75     LegendNANA
23:00 Legend Double Dagger -0.2 -2.8 83 18 24 16.1 101.64   -6 LegendNANA

Notes on Data Quality.

Legend

  • E = Estimated
  • M = Missing
  • NA = Not Available
  • ‡ = Partner data that is not subject to review by the National Climate Archives
Date modified: